Home > Weather > Lincoln > Past weeks

Flag for USA Weather for the Past 2 Weeks in Lincoln, Nebraska, USA

Now
63 °F

Sunny.


Feels Like: 63 °F
Forecast: 47 / 69 °F
Wind: 12 mph from North

Location: Lincoln Municipal Airport

Current Time: May 4, 2016 at 11:34:11 AM

Latest Report: May 4, 2016 at 10:54 AM


Visibility: 10 mi

Pressure: 30.07 "Hg

Humidity: 38%

Dew Point: 37 °F

Location of LincolnLocation

Historic Weather in Lincoln — Graph

°F

Lincoln Temperature Yesterday

Maximum temperature yesterday: 72 °F (at 3:54 PM)
Minimum temperature yesterday: 40 °F (at 5:54 AM)
Average temperature yesterday: 58 °F

High & Low Weather Summary for the Past Weeks

 TemperatureHumidityPressure
High81 °F (Apr 23, 3:54 PM)97% (Apr 27, 4:02 AM)30.24 "Hg (Apr 27, 4:02 AM)
Low40 °F (May 3, 5:54 AM)30% (May 3, 5:54 PM)29.35 "Hg (Apr 27, 4:54 AM)
Average56 °F71%29.88 "Hg
* Reported Apr 19 9:54 AM — May 4 9:54 AM, Lincoln, Weather by CustomWeather, © 2016

Note: Actual official high and low records may vary slightly from our data, if they occured in-between our weather recording intervals... More about our weather records

Advertising

Lincoln Weather History for the Previous 24 Hours

Scroll right to see more
 ConditionsComfort  
Time TempWeatherWind HumidityBarometerVisibility
9:54 AM
Wed, May 4
60 °FSunny.14 mph42%30.07 "Hg10 mi
8:54 AM57 °FSunny.16 mph46%30.05 "Hg10 mi
7:54 AM53 °FSunny.13 mph52%30.03 "Hg10 mi
6:54 AM50 °FClear.10 mph59%30.00 "Hg10 mi
5:54 AM51 °FClear.7 mph61%29.97 "Hg10 mi
4:54 AM52 °FClear.8 mph64%29.96 "Hg10 mi
3:54 AM53 °FClear.8 mph64%29.95 "Hg10 mi
2:54 AM56 °FClear.8 mph62%29.93 "Hg10 mi
1:54 AM59 °FClear.8 mph58%29.92 "Hg10 mi
12:54 AM59 °FClear.10 mph58%29.90 "Hg10 mi
11:54 PM
Tue, May 3
59 °FClear.6 mph60%29.89 "Hg10 mi
10:54 PM60 °FClear.7 mph58%29.90 "Hg10 mi
9:54 PM62 °FClear.7 mph52%29.92 "Hg10 mi
8:54 PM65 °FSunny.7 mph44%29.92 "Hg10 mi
7:54 PM69 °FSunny.8 mph35%29.92 "Hg10 mi
6:54 PM71 °FSunny.10 mph32%29.94 "Hg10 mi
5:54 PM71 °FPassing clouds.14 mph30%29.95 "Hg10 mi
4:54 PM71 °FScattered clouds.14 mph31%29.96 "Hg10 mi
3:54 PM72 °FScattered clouds.9 mph31%29.98 "Hg10 mi
2:54 PM68 °FPassing clouds.6 mph36%30.01 "Hg10 mi
1:54 PM69 °FSunny.7 mph32%30.02 "Hg10 mi
12:54 PM67 °FSunny.3 mph36%30.04 "Hg10 mi
11:54 AM66 °FSunny.6 mph37%30.06 "Hg10 mi
Weather by CustomWeather, © 2016

See weather overviewHow to use our weather pages